Hourly Weather Islamabad

Today, 28 November, Saturday

Time Temperature Precipitation Wind Pressure Humidity
00:00 +14°C° 0 mm 2 mps 721 mmHg 36%
01:00 +14°C° 0 mm 2 mps 721 mmHg 36%
02:00 +13°C° 0 mm 2 mps 720 mmHg 36%
03:00 +13°C° 0 mm 2 mps 720 mmHg 35%
04:00 +13°C° 0 mm 2 mps 720 mmHg 35%
05:00 +13°C° 0 mm 2 mps 720 mmHg 34%
06:00 +13°C° 0 mm 2 mps 720 mmHg 33%
07:00 +14°C° 0 mm 2 mps 720 mmHg 32%
08:00 +14°C° 0 mm 2 mps 720 mmHg 30%
09:00 +17°C° 0 mm 2 mps 720 mmHg 27%
10:00 +19°C° 0 mm 2 mps 720 mmHg 23%
11:00 +21°C° 0 mm 2 mps 720 mmHg 19%
12:00 +23°C° 0 mm 2 mps 720 mmHg 19%
13:00 +24°C° 0 mm 3 mps 719 mmHg 18%
14:00 +24°C° 0 mm 3 mps 719 mmHg 18%
15:00 +21°C° 0 mm 2 mps 718 mmHg 21%
16:00 +20°C° 0 mm 2 mps 718 mmHg 25%
17:00 +18°C° 0 mm 2 mps 718 mmHg 29%
18:00 +17°C° 0 mm 2 mps 718 mmHg 30%
19:00 +17°C° 0 mm 2 mps 718 mmHg 31%
20:00 +16°C° 0 mm 2 mps 718 mmHg 32%
21:00 +16°C° 0 mm 2 mps 718 mmHg 32%
22:00 +16°C° 0 mm 2 mps 718 mmHg 32%
23:00 +16°C° 0 mm 2 mps 717 mmHg 33%

Tomorrow, 29 November, Sunday

Time Temperature Precipitation Wind Pressure Humidity
00:00 +15°C° 0 mm 2 mps 717 mmHg 33%
01:00 +15°C° 0 mm 1 mps 717 mmHg 33%
02:00 +15°C° 0 mm 1 mps 717 mmHg 33%
03:00 +15°C° 0 mm 1 mps 716 mmHg 33%
04:00 +15°C° 0 mm 1 mps 716 mmHg 33%
05:00 +14°C° 0 mm 1 mps 716 mmHg 33%
06:00 +15°C° 0 mm 1 mps 717 mmHg 32%
07:00 +15°C° 0 mm 1 mps 717 mmHg 32%
08:00 +16°C° 0 mm 1 mps 717 mmHg 31%
09:00 +19°C° 0 mm 1 mps 718 mmHg 27%
10:00 +21°C° 0 mm 1 mps 719 mmHg 24%
11:00 +23°C° 0 mm 1 mps 719 mmHg 20%
12:00 +24°C° 0 mm 1 mps 719 mmHg 19%
13:00 +24°C° 0 mm 1 mps 719 mmHg 18%
14:00 +25°C° 0 mm 1 mps 718 mmHg 17%
15:00 +23°C° 0 mm 1 mps 718 mmHg 20%
16:00 +21°C° 0 mm 1 mps 718 mmHg 23%
17:00 +20°C° 0 mm 1 mps 717 mmHg 26%
18:00 +19°C° 0 mm 1 mps 717 mmHg 27%
19:00 +19°C° 0 mm 1 mps 718 mmHg 28%
20:00 +18°C° 0 mm 1 mps 718 mmHg 29%
21:00 +18°C° 0 mm 1 mps 718 mmHg 30%
22:00 +16°C° 0 mm 1 mps 718 mmHg 31%
23:00 +16°C° 0 mm 1 mps 717 mmHg 33%

Day after tomorrow, 30 November, Monday

Time Temperature Precipitation Wind Pressure Humidity
00:00 +16°C° 0 mm 1 mps 717 mmHg 34%
01:00 +15°C° 0 mm 1 mps 717 mmHg 35%
02:00 +15°C° 0 mm 1 mps 717 mmHg 37%
03:00 +14°C° 0 mm 1 mps 717 mmHg 37%
04:00 +14°C° 0 mm 1 mps 716 mmHg 38%
05:00 +14°C° 0 mm 1 mps 716 mmHg 39%
06:00 +14°C° 0 mm 1 mps 717 mmHg 38%
07:00 +15°C° 0 mm 1 mps 717 mmHg 37%
08:00 +15°C° 0 mm 1 mps 718 mmHg 36%
09:00 +19°C° 0 mm 1 mps 718 mmHg 31%
10:00 +21°C° 0 mm 1 mps 718 mmHg 27%
11:00 +23°C° 0 mm 1 mps 719 mmHg 22%
12:00 +24°C° 0 mm 2 mps 718 mmHg 21%
13:00 +24°C° 0 mm 2 mps 718 mmHg 20%
14:00 +25°C° 0 mm 2 mps 718 mmHg 18%
15:00 +23°C° 0 mm 2 mps 717 mmHg 21%
16:00 +21°C° 0 mm 2 mps 717 mmHg 24%
17:00 +20°C° 0 mm 1 mps 717 mmHg 26%
18:00 +19°C° 0 mm 1 mps 717 mmHg 27%
19:00 +19°C° 0 mm 1 mps 717 mmHg 28%
20:00 +18°C° 0 mm 1 mps 717 mmHg 29%
21:00 +18°C° 0 mm 1 mps 717 mmHg 30%
22:00 +18°C° 0 mm 1 mps 717 mmHg 31%
23:00 +18°C° 0 mm 1 mps 718 mmHg 32%

1 December, Tuesday

Time Temperature Precipitation Wind Pressure Humidity
00:00 +18°C° 0 mm 1 mps 717 mmHg 33%
01:00 +18°C° 0 mm 1 mps 717 mmHg 33%
02:00 +16°C° 0 mm 0 mps 717 mmHg 33%
03:00 +16°C° 0 mm 1 mps 717 mmHg 35%
04:00 +16°C° 0 mm 1 mps 717 mmHg 36%
05:00 +15°C° 0 mm 1 mps 717 mmHg 37%
06:00 +16°C° 0 mm 1 mps 717 mmHg 37%
07:00 +16°C° 0 mm 1 mps 718 mmHg 37%
08:00 +18°C° 0 mm 1 mps 718 mmHg 37%
09:00 +20°C° 0 mm 1 mps 719 mmHg 32%
10:00 +22°C° 0 mm 1 mps 719 mmHg 28%
11:00 +24°C° 0 mm 1 mps 720 mmHg 23%
12:00 +25°C° 0 mm 2 mps 719 mmHg 22%
13:00 +25°C° 0 mm 2 mps 719 mmHg 21%
14:00 +26°C° 0 mm 2 mps 718 mmHg 20%
15:00 +24°C° 0 mm 2 mps 718 mmHg 22%
16:00 +21°C° 0 mm 2 mps 717 mmHg 25%
17:00 +20°C° 0 mm 2 mps 717 mmHg 27%
18:00 +19°C° 0 mm 2 mps 717 mmHg 29%
19:00 +19°C° 0 mm 1 mps 717 mmHg 30%
20:00 +18°C° 0 mm 1 mps 718 mmHg 32%
21:00 +18°C° 0 mm 1 mps 718 mmHg 33%
22:00 +18°C° 0 mm 1 mps 718 mmHg 35%
23:00 +16°C° 0 mm 1 mps 718 mmHg 36%

2 December, Wednesday

Time Temperature Precipitation Wind Pressure Humidity
00:00 +16°C° 0 mm 1 mps 717 mmHg 37%
01:00 +16°C° 0 mm 1 mps 717 mmHg 38%
02:00 +15°C° 0 mm 1 mps 717 mmHg 39%
03:00 +15°C° 0 mm 1 mps 716 mmHg 39%
04:00 +15°C° 0 mm 1 mps 716 mmHg 40%
05:00 +15°C° 0 mm 1 mps 716 mmHg 40%
06:00 +15°C° 0 mm 1 mps 716 mmHg 40%
07:00 +16°C° 0 mm 1 mps 717 mmHg 40%
08:00 +16°C° 0 mm 1 mps 717 mmHg 40%
09:00 +18°C° 0 mm 2 mps 717 mmHg 35%
10:00 +21°C° 0 mm 2 mps 718 mmHg 30%
11:00 +24°C° 0 mm 2 mps 718 mmHg 25%
12:00 +25°C° 0 mm 3 mps 717 mmHg 23%
13:00 +26°C° 0 mm 3 mps 717 mmHg 22%
14:00 +26°C° 0 mm 3 mps 716 mmHg 21%
15:00 +24°C° 0 mm 3 mps 715 mmHg 24%
16:00 +22°C° 0 mm 3 mps 715 mmHg 27%
17:00 +20°C° 0 mm 2 mps 714 mmHg 29%
18:00 +19°C° 0 mm 2 mps 715 mmHg 31%
19:00 +18°C° 0 mm 2 mps 715 mmHg 32%
20:00 +18°C° 0 mm 2 mps 715 mmHg 34%
21:00 +17°C° 0 mm 2 mps 715 mmHg 34%
22:00 +17°C° 0 mm 2 mps 714 mmHg 35%
23:00 +17°C° 0 mm 2 mps 714 mmHg 36%

3 December, Thursday

Time Temperature Precipitation Wind Pressure Humidity
00:00 +16°C° 0 mm 2 mps 714 mmHg 37%
01:00 +16°C° 0 mm 2 mps 714 mmHg 38%
02:00 +16°C° 0 mm 1 mps 714 mmHg 39%
03:00 +15°C° 0 mm 1 mps 714 mmHg 39%
04:00 +15°C° 0 mm 1 mps 713 mmHg 40%
05:00 +15°C° 0 mm 1 mps 713 mmHg 40%
06:00 +15°C° 0 mm 1 mps 714 mmHg 39%
07:00 +15°C° 0 mm 1 mps 714 mmHg 37%
08:00 +16°C° 0 mm 1 mps 715 mmHg 36%
09:00 +19°C° 0 mm 1 mps 715 mmHg 31%
10:00 +22°C° 0 mm 1 mps 716 mmHg 27%
11:00 +24°C° 0 mm 1 mps 716 mmHg 22%
12:00 +25°C° 0 mm 1 mps 716 mmHg 21%
13:00 +25°C° 0 mm 1 mps 715 mmHg 20%
14:00 +26°C° 0 mm 1 mps 715 mmHg 19%
15:00 +24°C° 0 mm 1 mps 715 mmHg 22%
16:00 +22°C° 0 mm 1 mps 714 mmHg 25%
17:00 +20°C° 0 mm 1 mps 714 mmHg 27%
18:00 +20°C° 0 mm 1 mps 714 mmHg 29%
19:00 +19°C° 0 mm 1 mps 715 mmHg 30%
20:00 +18°C° 0 mm 1 mps 715 mmHg 32%
21:00 +18°C° 0 mm 1 mps 715 mmHg 33%
22:00 +16°C° 0 mm 1 mps 715 mmHg 35%
23:00 +16°C° 0 mm 1 mps 715 mmHg 36%
Show more